BEIDOU 12 (C11)

Last updated on Aug. 14, 2020, 5:31 a.m. UTC

1 38250U 12018A   20225.99061622 -.00000071  00000-0  10000-3 0  9999
2 38250  56.7418  15.8029 0020952 238.6373 244.6422  1.86234272 56545
UTC
Height (km)
Latitude
Longitude
Inclination
Orbital Period
UTC large
Height (km)
Speed (km/s)
/
Latitude / Longitude
Inclination (degrees)
Orbital Period (minutes)
Azimuth
Elevation
Range (km)
Doppler Factor
iOS Compass Heading
iOS Angle

Next 30 passes for location: Hong Kong

Rise time Rise Azimuth (degrees) Set time Set Azimuth (degrees) Duration Max altitude (degrees)

No matching passes for this satellites